Location: Balg
(48.7895°N, 8.2265°E)
Time: 16:17:54
(UTC+00:00)

Daily predictions for brighter satellites

Satellite Brightness Start Highest point End
(mag) Time Altitude Azimuth Time Altitude Azimuth Time Altitude Azimuth
USA 308 3.5 16:00:22 10° WNW 16:04:26 42° N 16:08:30 10° ENE
SL-16 R/B 3.2 15:59:53 10° N 16:04:30 25° NE 16:09:06 10° E
Cosmos 2221 3.1 16:00:21 10° SSW 16:04:35 60° WNW 16:08:54 10° N
Okean O Rocket 3.4 16:03:09 10° E 16:05:03 13° NE 16:06:58 10° NNE
MOS 1 Rocket 3.8 16:00:37 10° N 16:05:30 63° WNW 16:10:04 10° SSW
CZ-2C R/B 2.8 16:01:46 10° SSE 16:06:33 66° ENE 16:11:16 10° N
Envisat 4.3 16:02:28 10° S 16:07:19 45° W 16:12:12 10° NNW
Cosmos 2082 Rocket 2.7 16:03:13 10° S 16:08:32 43° ESE 16:13:51 10° NE
Sich 1 3.3 16:04:38 10° N 16:08:49 46° ENE 16:12:59 10° SSE
Cosmos 1500 Rocket 3.7 16:04:27 10° N 16:08:55 84° W 16:13:18 10° S
Cosmos 540 Rocket 3.6 16:04:30 10° S 16:09:30 61° ESE 16:14:34 10° NNE
ARGOS 4.4 16:07:28 10° E 16:11:09 19° ENE 16:14:50 10° NNE
SJ-7 4.5 16:08:40 10° SSE 16:12:53 86° ENE 16:17:09 10° NNW
FengYun 1-2 T 4.3 16:08:53 10° SSE 16:14:20 60° ENE 16:19:47 10° N
COSMOS 2455 3.0 16:09:06 10° SSW 16:15:00 60° ESE 16:20:57 10° NE
SMAP 3.3 16:12:36 10° SE 16:17:04 47° ENE 16:21:32 10° N
NOAA 6 4.2 16:13:37 10° SE 16:18:34 51° ENE 16:23:31 10° N
Cosmos 1805 Rocket 3.5 16:17:02 10° N 16:21:23 79° E 16:25:43 10° SSE
Cosmos 1833 Rocket 2.9 16:16:10 10° SSW 16:21:47 78° WNW 16:27:28 10° NNE
Cosmos 1933 3.3 16:17:49 10° S 16:21:51 74° E 16:25:53 10° NNE
Cosmos 2278 3.7 16:16:12 10° NNW 16:21:54 62° ENE 16:27:31 10° SE
Cosmos 2333 Rocket 4.0 16:20:29 10° N 16:23:22 14° NNE 16:26:02 10° ENE
Cosmos 1602 3.7 16:20:24 10° N 16:24:17 88° E 16:28:10 10° S
CZ-4B DEB 4.4 16:22:28 10° SE 16:27:45 49° ENE 16:33:00 10° N
USA 305 3.2 16:24:49 10° WNW 16:28:57 48° NNE 16:32:51 11° E
CZ-2C R/B 3.8 16:26:13 10° NE 16:29:59 20° E 16:33:45 10° SE
SL-24 R/B - RUBIN 2 4.2 16:26:50 10° NW 16:31:18 59° SW 16:35:32 10° SSE
Cosmos 2219 Rocket 4.0 16:29:01 10° N 16:31:27 13° NNE 16:33:20 11° NE
CZ-4B R/B 2.9 16:29:10 10° S 16:33:05 76° WSW 16:36:51 10° NNW
Cosmos 1500 3.0 16:30:49 10° N 16:34:33 75° ENE 16:38:16 10° SSE
Meteor 1-14 Rocket 4.4 16:28:59 10° N 16:34:46 57° ENE 16:40:36 10° SSE
Cosmos 44 Rocket 3.3 16:31:09 10° NW 16:36:05 61° NE 16:40:49 10° SE
COSMOS 2406 3.5 16:35:42 10° SW 16:41:26 73° WNW 16:47:11 10° NNE
Cosmos 1814 Rocket 4.1 16:37:17 10° S 16:42:23 56° ESE 16:47:26 10° NNE
Cosmos 921 Rocket 4.0 16:40:13 10° SSE 16:43:42 25° E 16:45:57 16° NE
Cosmos 1570 Rocket 4.1 16:44:08 10° S 16:49:14 56° ESE 16:54:14 11° NNE
MOS 1-B Rocket 4.5 16:45:44 10° NNE 16:51:32 45° E 16:58:09 10° S
CZ-4B R/B 3.4 16:48:46 10° SE 16:53:50 44° ENE 16:58:52 10° N
Cosmos 2298 Rocket 4.2 16:49:35 10° NNW 16:54:48 51° ENE 16:59:59 10° SE
USA 267 3.3 16:50:26 16° ENE 16:55:53 67° SE 17:02:23 10° SW
CZ-2D R/B 3.2 16:52:18 10° SSE 16:56:04 58° ENE 16:59:50 10° N
MOS 1-B 4.3 16:52:58 10° SSE 16:58:40 65° ENE 17:04:25 10° N
ATLAS CENTAUR R/B 2.9 16:49:25 10° WSW 16:58:41 70° NW 17:01:31 20° NE
Cosmos 1939 Rocket 3.4 16:54:42 10° S 16:58:45 62° WSW 17:02:48 10° NNW
USA 306 3.0 16:57:09 10° WNW 17:01:22 60° NNE 17:03:51 23° E
COSMO-SKYMED 1 3.3 16:59:10 19° NE 17:01:26 31° E 17:05:17 10° SSE
Cosmos 1633 Rocket 2.9 16:57:07 10° N 17:01:31 75° E 17:05:54 10° SSE
Cosmos 1151 Rocket 2.9 16:57:24 10° S 17:01:43 71° E 17:06:05 10° NNE
Cosmos 1666 2.5 16:59:33 10° N 17:03:17 89° E 17:07:00 10° S
Cosmos 1782 3.4 16:59:56 10° SSW 17:03:52 57° WNW 17:07:48 10° N
APEX 3.9 17:00:57 10° S 17:04:03 26° ESE 17:04:23 25° ESE
Meteor 2-6 Rocket 4.3 16:59:14 10° S 17:04:46 56° E 17:10:12 10° NNE
Cosmos 2360 Rocket 2.9 17:00:39 10° NNW 17:05:39 31° NE 17:08:17 21° E
ISS -0.9 17:04:07 10° W 17:06:34 19° SW 17:09:00 10° S
SeaSat 1 4.5 17:04:02 10° N 17:07:42 21° NW 17:11:20 10° W
PAYLOAD B 4.2 17:03:07 10° SSE 17:08:43 80° ENE 17:14:20 10° NNW
Cosmos 1900 4.3 17:03:55 10° SSW 17:08:45 70° ESE 17:11:52 22° NE
YAOGAN 1 4.1 17:11:21 19° NNE 17:11:21 19° NNE 17:13:06 10° N
Cosmos 1818 3.7 17:06:06 10° NW 17:11:37 79° SW 17:17:03 10° SSE
CZ-2C R/B 3.8 17:15:01 10° SSW 17:16:38 12° S 17:18:16 10° SSE
Cosmos 2279 Rocket 3.9 17:11:35 10° S 17:17:48 87° E 17:24:02 10° N
ATLAS 5 CENTAUR R/B 2.1 17:11:10 10° NW 17:18:29 60° NNE 17:19:39 36° E
Cosmos 1536 4.5 17:15:05 10° N 17:16:30 19° NNE 17:16:30 19° NNE
Cosmos 2142 Rocket 4.5 17:12:33 10° S 17:18:44 88° W 17:25:03 10° N
Cosmos 841 Rocket 4.3 17:14:15 10° SW 17:19:13 48° WNW 17:24:14 10° NNE
Meteor 2-15 4.4 17:14:11 10° S 17:20:09 60° E 17:26:08 10° NNE
Cosmos 2266 Rocket 4.0 17:14:14 10° N 17:20:36 61° ENE 17:26:56 10° SSE
ERBS 3.9 17:18:29 10° NW 17:20:46 20° N 17:20:46 20° N
USA 307 2.8 17:17:42 10° WNW 17:21:58 68° NNE 17:23:33 36° E
CZ-4C R/B 3.6 17:15:29 10° NW 17:22:36 58° WSW 17:30:50 10° SSE
Lacrosse 5 rocket 2.0 17:21:09 10° WNW 17:24:58 52° SW 17:28:57 10° SE
SL-08 RB Rocket 4.0 17:20:57 10° SE 17:25:19 44° ENE 17:29:41 10° N
NOSS 3-4 (A) 4.4 17:20:22 10° NW 17:26:23 35° NNE 17:28:52 28° ENE
NOSS 3-4 (C) 4.4 17:20:29 10° NW 17:26:29 34° NNE 17:28:56 28° ENE
Cosmos 2208 Rocket 4.1 17:23:07 10° SSW 17:28:33 88° WNW 17:32:51 17° NNE
Cosmos 1933 Rocket 3.6 17:24:22 10° N 17:28:38 53° ENE 17:32:52 10° SSE
Cosmos 2322 Rocket 2.2 17:22:57 10° NNW 17:28:38 62° ENE 17:34:17 10° SE
ATLAS 2AS CENTAUR R/B 3.9 17:22:28 10° NW 17:28:44 27° NNE 17:31:18 22° NE
COSMOS 2428 4.1 17:25:08 10° N 17:28:43 20° NNE 17:28:43 20° NNE
USA 234 3.4 17:23:52 10° SE 17:30:25 76° SW 17:36:59 10° WNW
Cosmos 2150 Rocket 3.9 17:25:12 10° NNW 17:30:25 89° ENE 17:35:41 10° SSE
Cosmos 1980 Rocket 4.1 17:26:34 10° NW 17:31:30 32° WSW 17:36:23 10° SSW
Cosmos 1328 Rocket 3.6 17:27:21 10° SSW 17:31:48 81° W 17:36:01 11° N
Cosmos 1470 Rocket 3.6 17:30:12 10° N 17:34:42 86° W 17:39:11 10° S
Cosmos 1544 2.9 17:31:11 10° N 17:34:49 79° E 17:38:26 10° SSE
Cosmos 1125 Rocket 3.5 17:31:22 10° NNW 17:36:39 88° WSW 17:41:56 10° SSE
Cosmos 1867 4.0 17:32:34 10° S 17:37:38 40° ESE 17:38:28 38° E
Cosmos 1812 4.0 17:34:05 10° SW 17:37:43 39° WNW 17:41:22 10° N
X-37B 2.4 17:36:09 10° SSW 17:37:49 20° S 17:37:49 20° S
H-2A R/B 2.4 17:33:53 10° S 17:38:57 63° WSW 17:43:55 10° NNW
DEBRIS 4.5 17:37:05 10° S 17:38:35 21° SSE 17:38:35 21° SSE
Okean O Rocket 1.5 17:36:14 10° SSE 17:40:41 84° ENE 17:45:10 10° NNW
Meteor 2-8 Rocket 4.5 17:35:36 10° S 17:41:46 83° WNW 17:47:58 10° N
Meteor 1-11 Rocket 3.6 17:36:11 10° N 17:41:52 79° ENE 17:47:37 10° SSE
Meteor 1-10 Rocket 4.1 17:36:08 10° S 17:41:53 80° E 17:47:11 12° NNE
GEOS 3 Rocket 4.0 17:41:55 39° NE 17:42:33 41° NE 17:47:23 10° NNW
USA 32 4.0 17:38:48 10° SSE 17:43:53 56° E 17:46:22 29° NNE
ATLAS CENTAUR R/B 4.0 17:42:34 10° NNW 17:44:08 11° N 17:44:14 11° N
USA 308 2.7 17:40:24 10° WNW 17:44:41 86° NNE 17:45:22 62° ESE
SL-16 R/B 2.3 17:43:33 10° NNW 17:49:14 76° WSW 17:54:53 10° SSE
SKYMED 2 3.5 17:47:47 34° NNE 17:49:41 89° WNW 17:54:01 10° SSW
Cosmos 2237 Rocket 4.2 17:47:49 10° N 17:49:04 12° NNE 17:49:04 12° NNE
ARGOS 3.2 17:45:22 10° SSE 17:50:47 81° WSW 17:56:14 10° NNW
Cosmos 2082 Rocket 3.4 17:47:26 10° WSW 17:52:42 38° NW 17:56:57 15° NNE
deb Chang Zheng 4 4.1 17:52:03 10° S 17:56:18 59° WSW 18:00:35 10° NNW
COSMOS 2455 4.1 17:55:49 10° WSW 18:01:18 35° NW 18:04:54 19° NNE
Feng Yun 1-1 Rocket 4.3 17:59:44 10° SSE 18:05:39 88° ENE 18:11:31 10° NNW
USA 305 3.2 18:04:44 10° WNW 18:08:52 64° SW 18:08:52 64° SW
Cosmos 2333 Rocket 2.8 18:03:39 10° NNW 18:08:04 41° NNE 18:08:04 41° NNE
Cosmos 1356 Rocket 4.1 18:05:15 10° NNW 18:09:22 53° W 18:13:31 10° S
CZ-2C R/B 2.9 18:06:50 17° N 18:10:45 63° WNW 18:15:51 10° SSW
Cosmos 2219 Rocket 3.2 18:11:38 10° NNW 18:15:04 31° N 18:15:04 31° N
Aureole 3 Rocket 3.6 18:13:28 10° S 18:18:08 84° W 18:24:52 10° N
Cosmos 1515 Rocket 4.4 18:14:42 10° SSW 18:19:00 49° WNW 18:20:26 35° NNW
Cosmos 921 Rocket 4.4 18:17:55 10° SW 18:21:48 35° WNW 18:22:47 31° NNW
Nadezhda 2 Rocket 4.4 18:17:41 10° N 18:24:09 72° E 18:24:23 71° E
COSMO-SKYMED 1 4.2 18:36:23 27° NW 18:37:34 31° WNW 18:41:24 10° SW
USA 267 3.5 18:37:47 52° NNE 18:38:52 58° NNW 18:45:14 10° W
Meteor 1-27 Rocket 4.3 18:39:40 10° SSW 18:45:02 52° WNW 18:46:30 41° NNW
Cosmos 2360 Rocket 2.7 18:44:26 10° NW 18:49:59 56° WSW 18:50:08 56° WSW
Cosmos 2322 Rocket 4.2 19:07:43 10° NW 19:12:15 25° WSW 19:16:47 10° SSW
NOSS 3-4 (A) 4.2 19:11:10 10° NW 19:16:19 56° NW 19:16:19 56° NW
NOSS 3-4 (C) 4.2 19:11:16 10° NW 19:16:24 55° NW 19:16:24 55° NW
ATLAS 2AS CENTAUR R/B 3.8 19:14:11 10° NW 19:18:44 36° NNW 19:18:44 36° NNW
Cosmos 2333 Rocket 4.5 19:48:12 10° NW 19:50:08 20° NW 19:50:08 20° NW
